Home > Weather > Liège > Past weeks

Flag for Belgium Weather for the Past 2 Weeks in Liège, Belgium

Now
46 °F

Passing clouds.


Feels Like: 41 °F
Forecast: 45 / 53 °F
Wind: 12 mph from South

Location: Bierset

Current Time: Feb 6, 2016 at 4:41:16 AM

Latest Report: Feb 6, 2016 at 3:50 AM


Visibility: N/A

Pressure: 29.95 "Hg

Humidity: 82%

Dew point: 41 °F

Location of LiègeLocation

Historic Weather in Liège — Graph

°F

Liège Temperature Yesterday

Maximum temperature yesterday: 48 °F (at 11:50 AM)
Minimum temperature yesterday: 39 °F (at 12:20 AM)
Average temperature yesterday: 46 °F

High & Low Weather Summary for the Past Weeks

 TemperatureHumidityPressure
High57 °F (Jan 25, 12:20 PM)100% (Jan 23, 4:20 AM)30.57 "Hg (Jan 23, 4:20 AM)
Low28 °F (Jan 22, 5:50 AM)44% (Jan 25, 2:20 PM)29.77 "Hg (Jan 30, 12:50 PM)
Average44 °F84%30.16 "Hg
* Reported Jan 22 2:20 AM — Feb 6 2:50 AM, Liège, Weather by CustomWeather, © 2016

Note: Actual official high and low records may vary slightly from our data, if they occured in-between our weather recording intervals... More about our weather records

Advertising

Liège Weather History for the Previous 24 Hours

 ConditionsComfort  
Time TempWeatherWind HumidityBarometerVisibility
2:50 AM
Sat, Feb 6
48 °FPassing clouds.17 mph76%29.98 "HgN/A
1:50 AM48 °FPartly cloudy.16 mph82%30.01 "HgN/A
1:20 AM48 °FPartly cloudy.13 mph82%30.01 "HgN/A
12:50 AM48 °FPassing clouds.16 mph82%30.04 "HgN/A
11:50 PM
Fri, Feb 5
48 °FPassing clouds.13 mph82%30.07 "HgN/A
11:20 PM48 °FPartly cloudy.14 mph82%30.07 "HgN/A
10:50 PM48 °FPartly cloudy.15 mph87%30.07 "HgN/A
10:20 PM48 °FPartly cloudy.13 mph87%30.07 "HgN/A
9:50 PM48 °FPassing clouds.13 mph87%30.09 "HgN/A
9:20 PM48 °FPartly cloudy.13 mph87%30.09 "HgN/A
8:50 PM48 °FPartly cloudy.14 mph87%30.09 "HgN/A
8:20 PM48 °FPartly cloudy.13 mph87%30.09 "HgN/A
7:50 PM48 °FPartly cloudy.15 mph87%30.12 "HgN/A
7:20 PM48 °FPartly cloudy.12 mph87%30.12 "HgN/A
6:50 PM48 °FPartly cloudy.12 mph87%30.12 "HgN/A
6:20 PM48 °FPartly cloudy.12 mph87%30.15 "HgN/A
5:50 PM48 °FPartly cloudy.13 mph87%30.15 "HgN/A
5:20 PM48 °FBroken clouds.12 mph87%30.15 "HgN/A
4:50 PM48 °FBroken clouds.12 mph87%30.15 "HgN/A
4:20 PM48 °FBroken clouds.13 mph87%30.18 "HgN/A
3:50 PM48 °FBroken clouds.13 mph87%30.18 "HgN/A
3:20 PM48 °FBroken clouds.16 mph87%30.18 "HgN/A
2:50 PM48 °FBroken clouds.14 mph87%30.18 "HgN/A
2:20 PM48 °FBroken clouds.12 mph87%30.21 "HgN/A
1:50 PM48 °FBroken clouds.12 mph87%30.21 "HgN/A
1:20 PM48 °FBroken clouds.13 mph87%30.21 "HgN/A
12:50 PM48 °FBroken clouds.12 mph87%30.24 "HgN/A
12:20 PM48 °FBroken clouds.13 mph87%30.24 "HgN/A
11:50 AM48 °FBroken clouds.14 mph87%30.24 "HgN/A
11:20 AM46 °FFog.13 mph93%30.27 "Hg2 mi
10:50 AM46 °FFog.15 mph93%30.27 "Hg2 mi
10:20 AM46 °FFog.15 mph93%30.27 "Hg2 mi
9:50 AM46 °FBroken clouds.15 mph93%30.24 "Hg4 mi
9:20 AM46 °FMostly cloudy.15 mph93%30.24 "Hg4 mi
8:50 AM46 °FBroken clouds.16 mph93%30.24 "Hg4 mi
8:20 AM46 °FFog.13 mph87%30.27 "Hg2 mi
7:50 AM46 °FFog.14 mph87%30.27 "Hg2 mi
7:20 AM45 °FFog.13 mph93%30.27 "Hg2 mi
6:50 AM45 °FFog.14 mph93%30.27 "Hg2 mi
6:20 AM45 °FFog.15 mph93%30.27 "Hg2 mi
5:50 AM45 °FFog.13 mph87%30.27 "Hg3 mi
4:50 AM45 °FPartly cloudy.13 mph87%30.27 "Hg4 mi
4:20 AM43 °FPartly cloudy.12 mph87%30.27 "HgN/A
Weather by CustomWeather, © 2016

See weather overviewHow to use our weather pages